Weather History for Suffolk, VA

Change the Weather History Date:

Tuesday, April 2, 2013

  Actual Average Record
Temperature  
Mean Temperature 47 °F -  
Max Temperature 57 °F 69 °F 88 °F (1967)
Min Temperature 37 °F 44 °F 28 °F (1964)
Degree Days  
Heating Degree Days 18    
Moisture  
Dew Point 29 °F    
Average Humidity 51    
Maximum Humidity 87    
Minimum Humidity 25    
Precipitation  
Precipitation 0.00 in - - ()
Sea Level Pressure  
Sea Level Pressure 30.09 in    
Wind  
Wind Speed 5 mph (NW)    
Max Wind Speed 16 mph    
Max Gust Speed 22 mph    
Visibility 10 miles    
Events      
Averages and records for this station are not official NWS values.
T = Trace of Precipitation, MM = Missing Value Source: NWS Daily Summary

Daily Weather History Graph

Daily Weather History Graph

Search for Another Location

Airport:

Trip Planner

Search our weather history database for the weather conditions in past years. The results will help you decide how hot, cold, wet, or windy it might be!

Date:

Astronomy

Apr. 02, 2013 Rise Set
Actual Time 6:50 AM EDT 7:29 PM EDT
Civil Twilight 6:24 AM EDT 7:55 PM EDT
Nautical Twilight 5:53 AM EDT 8:26 PM EDT
Astronomical Twilight 5:22 AM EDT 8:58 PM EDT
Moon 1:26 AM EDT (4/2) 11:45 AM EDT (4/2)
Length of Visible Light 13h 31m
Length of Day
12h 39m
Waning Gibbous, 56% of the Moon is Illuminated
Apr 2
Waning Gibbous
Apr 3
Last Quarter
Apr 10
New
Apr 18
First Quarter
Apr 25
Full

Hourly Weather History & Observations

Time (EDT) Temp. Windchill Dew Point Humidity Pressure Visibility Wind Dir Wind Speed Gust Speed Precip Events Conditions
12:15 AM 51.8 °F - 37.4 °F 58% 29.98 in 10.0 mi North 8.1 mph - N/A   Scattered Clouds
12:35 AM 51.8 °F - 37.4 °F 58% 29.99 in 10.0 mi North 4.6 mph - N/A   Mostly Cloudy
12:55 AM 51.8 °F - 37.4 °F 58% 30.00 in 10.0 mi North 5.8 mph - N/A   Scattered Clouds
1:15 AM 50.0 °F - 37.4 °F 62% 30.01 in 10.0 mi North 5.8 mph - N/A   Clear
1:35 AM 48.2 °F - 33.8 °F 58% 30.01 in 10.0 mi North 5.8 mph - N/A   Clear
1:55 AM 48.2 °F - 33.8 °F 58% 30.02 in 10.0 mi North 5.8 mph - N/A   Clear
2:15 AM 46.4 °F 45.2 °F 33.8 °F 62% 30.02 in 10.0 mi North 3.5 mph - N/A   Scattered Clouds
2:35 AM 46.4 °F 45.2 °F 33.8 °F 62% 30.03 in 10.0 mi North 3.5 mph - N/A   Scattered Clouds
2:55 AM 46.4 °F - 33.8 °F 62% 30.02 in 10.0 mi Calm Calm - N/A   Clear
3:15 AM 46.4 °F - 33.8 °F 62% 30.03 in 10.0 mi Calm Calm - N/A   Scattered Clouds
3:35 AM 44.6 °F - 33.8 °F 66% 30.03 in 10.0 mi Calm Calm - N/A   Scattered Clouds
3:55 AM 44.6 °F - 33.8 °F 66% 30.03 in 10.0 mi Calm Calm - N/A   Scattered Clouds
4:15 AM 42.8 °F - 35.6 °F 76% 30.03 in 10.0 mi Calm Calm - N/A   Mostly Cloudy
4:35 AM 42.8 °F - 37.4 °F 81% 30.04 in 10.0 mi Calm Calm - N/A   Overcast
4:55 AM 41.0 °F - 37.4 °F 87% 30.04 in 10.0 mi Calm Calm - N/A   Mostly Cloudy
5:15 AM 41.0 °F - 35.6 °F 81% 30.05 in 10.0 mi Calm Calm - N/A   Overcast
5:35 AM 42.8 °F - 35.6 °F 76% 30.06 in 10.0 mi Calm Calm - N/A   Overcast
5:55 AM 42.8 °F 39.3 °F 33.8 °F 70% 30.07 in 10.0 mi NNE 5.8 mph - N/A   Scattered Clouds
6:15 AM 42.8 °F 41.1 °F 30.2 °F 61% 30.08 in 10.0 mi North 3.5 mph - N/A   Clear
6:35 AM 42.8 °F - 30.2 °F 61% 30.09 in 10.0 mi Calm Calm - N/A   Scattered Clouds
6:55 AM 42.8 °F - 28.4 °F 57% 30.10 in 10.0 mi Calm Calm - N/A   Scattered Clouds
7:15 AM 39.2 °F - 32.0 °F 75% 30.11 in 10.0 mi Calm Calm - N/A   Clear
7:35 AM 39.2 °F - 35.6 °F 87% 30.13 in 10.0 mi Calm Calm - N/A   Clear
7:55 AM 42.8 °F - 35.6 °F 76% 30.13 in 10.0 mi Calm Calm - N/A   Clear
8:15 AM 44.6 °F - 32.0 °F 61% 30.14 in 10.0 mi Calm Calm - N/A   Clear
8:35 AM 46.4 °F 44.3 °F 30.2 °F 53% 30.14 in 10.0 mi NE 4.6 mph - N/A   Clear
8:55 AM 46.4 °F 45.2 °F 28.4 °F 50% 30.15 in 10.0 mi NE 3.5 mph - N/A   Clear
9:15 AM 48.2 °F - 26.6 °F 43% 30.15 in 10.0 mi NNE 3.5 mph - N/A   Clear
9:35 AM 48.2 °F - 26.6 °F 43% 30.15 in 10.0 mi ENE 3.5 mph - N/A   Clear
9:55 AM 48.2 °F - 26.6 °F 43% 30.15 in 10.0 mi Calm Calm - N/A   Clear
10:35 AM 48.2 °F - 23.0 °F 37% 30.15 in 10.0 mi SSW 3.5 mph - N/A   Clear
10:55 AM 51.8 °F - 24.8 °F 35% 30.14 in 10.0 mi WNW 4.6 mph - N/A   Clear
11:15 AM 51.8 °F - 24.8 °F 35% 30.14 in 10.0 mi NW 3.5 mph 9.2 mph N/A   Clear
11:35 AM 51.8 °F - 26.6 °F 38% 30.14 in 10.0 mi WNW 10.4 mph - N/A   Clear
11:55 AM 51.8 °F - 26.6 °F 38% 30.13 in 10.0 mi WSW 12.7 mph - N/A   Clear
12:15 PM 53.6 °F - 24.8 °F 33% 30.12 in 10.0 mi West 9.2 mph - N/A   Clear
12:35 PM 53.6 °F - 24.8 °F 33% 30.11 in 10.0 mi West 15.0 mph - N/A   Clear
12:55 PM 53.6 °F - 24.8 °F 33% 30.11 in 10.0 mi West 9.2 mph 17.3 mph N/A   Clear
1:15 PM 53.6 °F - 24.8 °F 33% 30.10 in 10.0 mi SW 5.8 mph - N/A   Clear
1:35 PM 55.4 °F - 24.8 °F 31% 30.10 in 10.0 mi West 6.9 mph 10.4 mph N/A   Clear
1:55 PM 55.4 °F - 24.8 °F 31% 30.09 in 10.0 mi West 15.0 mph 18.4 mph N/A   Clear
2:15 PM 55.4 °F - 24.8 °F 31% 30.08 in 10.0 mi WSW 11.5 mph - N/A   Clear
2:35 PM 55.4 °F - 24.8 °F 31% 30.08 in 10.0 mi WNW 6.9 mph - N/A   Clear
2:55 PM 55.4 °F - 24.8 °F 31% 30.06 in 10.0 mi SW 10.4 mph 21.9 mph N/A   Clear
3:15 PM 57.2 °F - 24.8 °F 29% 30.06 in 10.0 mi WNW 6.9 mph - N/A   Clear
3:35 PM 57.2 °F - 23.0 °F 27% 30.06 in 10.0 mi NW 9.2 mph - N/A   Clear
3:55 PM 57.2 °F - 23.0 °F 27% 30.05 in 10.0 mi WNW 11.5 mph 18.4 mph N/A   Clear
4:15 PM 57.2 °F - 21.2 °F 25% 30.05 in 10.0 mi West 12.7 mph - N/A   Clear
4:35 PM 57.2 °F - 21.2 °F 25% 30.05 in 10.0 mi NW 11.5 mph 17.3 mph N/A   Clear
4:55 PM 57.2 °F - 21.2 °F 25% 30.05 in 10.0 mi WNW 11.5 mph 17.3 mph N/A   Clear
5:15 PM 57.2 °F - 23.0 °F 27% 30.05 in 10.0 mi West 10.4 mph - N/A   Clear
5:35 PM 57.2 °F - 21.2 °F 25% 30.06 in 10.0 mi WNW 11.5 mph 17.3 mph N/A   Clear
5:55 PM 57.2 °F - 23.0 °F 27% 30.07 in 10.0 mi West 5.8 mph 9.2 mph N/A   Clear
6:15 PM 57.2 °F - 21.2 °F 25% 30.08 in 10.0 mi WSW 16.1 mph - N/A   Clear
6:35 PM 55.4 °F - 21.2 °F 26% 30.08 in 10.0 mi West 10.4 mph - N/A   Clear
6:55 PM 55.4 °F - 23.0 °F 29% 30.09 in 10.0 mi WNW 5.8 mph - N/A   Clear
7:15 PM 53.6 °F - 21.2 °F 28% 30.09 in 10.0 mi WNW 5.8 mph - N/A   Clear
7:35 PM 51.8 °F - 23.0 °F 33% 30.10 in 10.0 mi West 3.5 mph - N/A   Clear
7:55 PM 51.8 °F - 23.0 °F 33% 30.10 in 10.0 mi Calm Calm - N/A   Clear
8:15 PM 48.2 °F - 28.4 °F 46% 30.11 in 10.0 mi Calm Calm - N/A   Clear
8:35 PM 46.4 °F - 30.2 °F 53% 30.12 in 10.0 mi Calm Calm - N/A   Clear
8:55 PM 44.6 °F - 30.2 °F 57% 30.13 in 10.0 mi Calm Calm - N/A   Clear
9:15 PM 42.8 °F - 32.0 °F 66% 30.13 in 10.0 mi Calm Calm - N/A   Clear
9:35 PM 42.8 °F - 30.2 °F 61% 30.14 in 10.0 mi Calm Calm - N/A   Clear
9:55 PM 41.0 °F - 32.0 °F 70% 30.13 in 10.0 mi Calm Calm - N/A   Clear
10:15 PM 39.2 °F - 33.8 °F 81% 30.14 in 10.0 mi Calm Calm - N/A   Clear
10:35 PM 39.2 °F - 32.0 °F 75% 30.14 in 10.0 mi Calm Calm - N/A   Clear
10:55 PM 37.4 °F - 32.0 °F 81% 30.14 in 10.0 mi Calm Calm - N/A   Clear
11:15 PM 37.4 °F - 32.0 °F 81% 30.14 in 10.0 mi Calm Calm - N/A   Clear
11:35 PM 39.2 °F - 33.8 °F 81% 30.14 in 10.0 mi Calm Calm - N/A   Clear
11:55 PM 37.4 °F - 33.8 °F 87% 30.14 in 10.0 mi Calm Calm - N/A   Clear